Hourly Weather Rusko

Today, 11 April, Sunday

Time Temperature Precipitation Wind Pressure Humidity
00:00 +3°C° 0 mm 2 mps 763 mmHg 70%
01:00 +2°C° 0 mm 3 mps 763 mmHg 74%
02:00 +1°C° 0 mm 4 mps 763 mmHg 79%
03:00 +3°C° 0 mm 4 mps 762 mmHg 83%
04:00 +2°C° 0 mm 5 mps 762 mmHg 88%
05:00 +3°C° 0.5 mm 5 mps 761 mmHg 89%
06:00 +3°C° 0.5 mm 6 mps 761 mmHg 90%
07:00 +3°C° 0.5 mm 6 mps 760 mmHg 91%
08:00 +5°C° 0.5 mm 6 mps 760 mmHg 85%
09:00 +8°C° 0.5 mm 6 mps 759 mmHg 79%
10:00 +10°C° 0.5 mm 6 mps 759 mmHg 73%
11:00 +13°C° 0.1 mm 6 mps 759 mmHg 64%
12:00 +15°C° 0.1 mm 6 mps 758 mmHg 56%
13:00 +16°C° 0.1 mm 6 mps 758 mmHg 47%
14:00 +16°C° 0 mm 5 mps 758 mmHg 48%
15:00 +16°C° 0 mm 5 mps 758 mmHg 50%
16:00 +17°C° 0 mm 4 mps 758 mmHg 51%
17:00 +15°C° 0 mm 4 mps 758 mmHg 58%
18:00 +13°C° 0 mm 4 mps 758 mmHg 64%
19:00 +12°C° 0 mm 4 mps 758 mmHg 71%
20:00 +11°C° 0 mm 4 mps 758 mmHg 72%
21:00 +10°C° 0 mm 5 mps 758 mmHg 74%
22:00 +9°C° 0 mm 5 mps 758 mmHg 76%
23:00 +9°C° 0 mm 5 mps 758 mmHg 78%

Tomorrow, 12 April, Monday

Time Temperature Precipitation Wind Pressure Humidity
00:00 +9°C° 0 mm 5 mps 758 mmHg 79%
01:00 +8°C° 0 mm 5 mps 758 mmHg 81%
02:00 +7°C° 0 mm 5 mps 759 mmHg 85%
03:00 +6°C° 0 mm 5 mps 759 mmHg 88%
04:00 +3°C° 0 mm 5 mps 760 mmHg 91%
05:00 +3°C° 0.1 mm 5 mps 760 mmHg 91%
06:00 +3°C° 0.1 mm 5 mps 761 mmHg 91%
07:00 +3°C° 0.1 mm 5 mps 762 mmHg 91%
08:00 +3°C° 0 mm 6 mps 762 mmHg 87%
09:00 +3°C° 0 mm 6 mps 763 mmHg 83%
10:00 +3°C° 0 mm 6 mps 763 mmHg 79%
11:00 +3°C° 0 mm 6 mps 764 mmHg 75%
12:00 +4°C° 0 mm 6 mps 764 mmHg 71%
13:00 +4°C° 0 mm 7 mps 765 mmHg 66%
14:00 +4°C° 0 mm 6 mps 765 mmHg 67%
15:00 +3°C° 0 mm 6 mps 765 mmHg 68%
16:00 +3°C° 0 mm 6 mps 765 mmHg 68%
17:00 +3°C° 0 mm 6 mps 766 mmHg 70%
18:00 +3°C° 0 mm 6 mps 766 mmHg 73%
19:00 +2°C° 0 mm 5 mps 766 mmHg 75%
20:00 +2°C° 0 mm 5 mps 766 mmHg 75%
21:00 +2°C° 0 mm 5 mps 767 mmHg 76%
22:00 +2°C° 0 mm 5 mps 767 mmHg 76%
23:00 +2°C° 0 mm 5 mps 767 mmHg 78%

Day after tomorrow, 13 April, Tuesday

Time Temperature Precipitation Wind Pressure Humidity
00:00 +3°C° 0 mm 4 mps 767 mmHg 79%
01:00 +1°C° 0 mm 4 mps 767 mmHg 81%
02:00 +1°C° 0 mm 4 mps 767 mmHg 81%
03:00 +1°C° 0 mm 4 mps 767 mmHg 81%
04:00 +1°C° 0 mm 4 mps 767 mmHg 81%
05:00 +1°C° 0 mm 5 mps 768 mmHg 80%
06:00 +2°C° 0 mm 5 mps 768 mmHg 80%
07:00 +2°C° 0 mm 5 mps 768 mmHg 80%
08:00 +3°C° 0 mm 5 mps 768 mmHg 73%
09:00 +3°C° 0 mm 5 mps 768 mmHg 66%
10:00 +5°C° 0 mm 5 mps 769 mmHg 58%
11:00 +5°C° 0 mm 5 mps 769 mmHg 58%
12:00 +5°C° 0 mm 6 mps 769 mmHg 57%
13:00 +5°C° 0 mm 6 mps 769 mmHg 56%
14:00 +6°C° 0 mm 5 mps 769 mmHg 57%
15:00 +6°C° 0 mm 5 mps 769 mmHg 58%
16:00 +5°C° 0 mm 4 mps 768 mmHg 59%
17:00 +5°C° 0 mm 4 mps 769 mmHg 67%
18:00 +4°C° 0 mm 3 mps 769 mmHg 75%
19:00 +3°C° 0 mm 3 mps 769 mmHg 83%
20:00 +2°C° 0 mm 3 mps 769 mmHg 85%
21:00 +3°C° 0 mm 2 mps 769 mmHg 86%
22:00 +3°C° 0 mm 2 mps 769 mmHg 88%
23:00 +2°C° 0 mm 3 mps 769 mmHg 87%

14 April, Wednesday

Time Temperature Precipitation Wind Pressure Humidity
00:00 +2°C° 0 mm 3 mps 769 mmHg 86%
01:00 +2°C° 0 mm 3 mps 769 mmHg 85%
02:00 +2°C° 0 mm 3 mps 769 mmHg 85%
03:00 +2°C° 0 mm 3 mps 769 mmHg 84%
04:00 +2°C° 0 mm 3 mps 769 mmHg 84%
05:00 +3°C° 0 mm 3 mps 769 mmHg 82%
06:00 +3°C° 0 mm 4 mps 770 mmHg 80%
07:00 +4°C° 0 mm 4 mps 770 mmHg 78%
08:00 +3°C° 0 mm 5 mps 770 mmHg 73%
09:00 +5°C° 0 mm 5 mps 770 mmHg 67%
10:00 +6°C° 0 mm 5 mps 770 mmHg 61%
11:00 +5°C° 0 mm 6 mps 770 mmHg 61%
12:00 +5°C° 0 mm 6 mps 771 mmHg 61%
13:00 +5°C° 0 mm 7 mps 771 mmHg 61%
14:00 +4°C° 0 mm 7 mps 771 mmHg 62%
15:00 +4°C° 0 mm 7 mps 771 mmHg 63%
16:00 +3°C° 0 mm 7 mps 771 mmHg 64%
17:00 +3°C° 0 mm 6 mps 771 mmHg 69%
18:00 +2°C° 0 mm 6 mps 771 mmHg 75%
19:00 +2°C° 0 mm 6 mps 771 mmHg 80%
20:00 +2°C° 0 mm 6 mps 771 mmHg 79%
21:00 +2°C° 0 mm 7 mps 771 mmHg 78%
22:00 0°C° 0 mm 7 mps 771 mmHg 76%
23:00 0°C° 0 mm 7 mps 771 mmHg 74%

15 April, Thursday

Time Temperature Precipitation Wind Pressure Humidity
00:00 0°C° 0 mm 7 mps 771 mmHg 72%
01:00 0°C° 0 mm 8 mps 770 mmHg 71%
02:00 0°C° 0 mm 8 mps 770 mmHg 71%
03:00 0°C° 0 mm 8 mps 770 mmHg 71%
04:00 0°C° 0 mm 8 mps 770 mmHg 72%
05:00 0°C° 0 mm 9 mps 770 mmHg 72%
06:00 0°C° 0 mm 9 mps 771 mmHg 72%
07:00 +1°C° 0 mm 9 mps 771 mmHg 72%
08:00 +1°C° 0 mm 9 mps 771 mmHg 69%
09:00 +2°C° 0 mm 9 mps 771 mmHg 67%
10:00 +3°C° 0 mm 10 mps 771 mmHg 65%
11:00 +3°C° 0 mm 10 mps 771 mmHg 63%
12:00 +3°C° 0 mm 10 mps 771 mmHg 61%
13:00 +5°C° 0 mm 10 mps 771 mmHg 60%
14:00 +5°C° 0 mm 10 mps 771 mmHg 60%
15:00 +5°C° 0 mm 10 mps 771 mmHg 60%
16:00 +5°C° 0 mm 10 mps 771 mmHg 60%
17:00 +3°C° 0 mm 9 mps 771 mmHg 66%
18:00 +2°C° 0 mm 9 mps 772 mmHg 71%
19:00 +1°C° 0 mm 9 mps 772 mmHg 77%
20:00 +1°C° 0 mm 8 mps 772 mmHg 79%
21:00 +1°C° 0 mm 8 mps 772 mmHg 81%
22:00 +1°C° 0 mm 8 mps 773 mmHg 83%
23:00 +1°C° 0 mm 8 mps 773 mmHg 85%

16 April, Friday

Time Temperature Precipitation Wind Pressure Humidity
00:00 0°C° 0 mm 7 mps 773 mmHg 87%
01:00 0°C° 0 mm 7 mps 773 mmHg 89%
02:00 0°C° 0 mm 7 mps 773 mmHg 91%
03:00 0°C° 0 mm 7 mps 773 mmHg 92%
04:00 0°C° 0 mm 7 mps 773 mmHg 94%
05:00 +2°C° 0 mm 7 mps 773 mmHg 91%
06:00 +2°C° 0 mm 7 mps 773 mmHg 89%
07:00 +3°C° 0 mm 7 mps 774 mmHg 86%
08:00 +4°C° 0 mm 7 mps 774 mmHg 78%
09:00 +5°C° 0 mm 7 mps 774 mmHg 69%
10:00 +8°C° 0 mm 7 mps 774 mmHg 60%
11:00 +7°C° 0 mm 8 mps 774 mmHg 58%
12:00 +7°C° 0 mm 8 mps 774 mmHg 56%
13:00 +9°C° 0 mm 8 mps 774 mmHg 54%
14:00 +7°C° 0 mm 8 mps 774 mmHg 56%
15:00 +7°C° 0 mm 8 mps 774 mmHg 58%
16:00 +6°C° 0 mm 8 mps 774 mmHg 59%
17:00 +5°C° 0 mm 7 mps 774 mmHg 66%
18:00 +4°C° 0 mm 7 mps 775 mmHg 73%
19:00 +3°C° 0 mm 6 mps 775 mmHg 80%
20:00 +2°C° 0 mm 6 mps 775 mmHg 83%
21:00 +2°C° 0 mm 5 mps 775 mmHg 86%
22:00 +1°C° 0 mm 5 mps 776 mmHg 89%
23:00 +1°C° 0 mm 5 mps 776 mmHg 90%
Show more